When you browse on this site, cookies collect data to enhance your experience and personalize the content and advertising you see.
Visit our Privacy Policy to learn more. By continuing to use the site, you agree to this use of cookies and data.
  • In Netherlands
  • List of Countries
  • For 7 days
  • Water Temperature
  • Satellite Maps
  • Weather Map
  • Weather Widgets
  • user-avatar
    Login

    Hourly Weather Giumri

    Today, 19 March, Tuesday

    Time Temperature Precipitation Wind Pressure Humidity
    00:00 -4°C° 0 mm 1 mps 633 mmHg 77%
    01:00 -4°C° 0 mm 1 mps 633 mmHg 77%
    02:00 -4°C° 0 mm 1 mps 633 mmHg 77%
    03:00 -4°C° 0 mm 1 mps 634 mmHg 76%
    04:00 -4°C° 0 mm 1 mps 634 mmHg 76%
    05:00 -6°C° 0 mm 1 mps 634 mmHg 75%
    06:00 -6°C° 0 mm 1 mps 634 mmHg 75%
    07:00 -4°C° 0 mm 1 mps 634 mmHg 72%
    08:00 -2°C° 0 mm 1 mps 634 mmHg 68%
    09:00 -1°C° 0 mm 1 mps 635 mmHg 65%
    10:00 0°C° 0 mm 1 mps 635 mmHg 62%
    11:00 +1°C° 0 mm 1 mps 635 mmHg 60%
    12:00 +2°C° 0 mm 1 mps 635 mmHg 57%
    13:00 +3°C° 0 mm 1 mps 635 mmHg 56%
    14:00 +2°C° 0 mm 0 mps 634 mmHg 56%
    15:00 +3°C° 0 mm 0 mps 634 mmHg 55%
    16:00 +2°C° 0 mm 0 mps 634 mmHg 58%
    17:00 +1°C° 0 mm 0 mps 634 mmHg 61%
    18:00 +1°C° 0 mm 1 mps 634 mmHg 64%
    19:00 +1°C° 0 mm 1 mps 634 mmHg 66%
    20:00 0°C° 0 mm 1 mps 634 mmHg 69%
    21:00 0°C° 0 mm 1 mps 634 mmHg 72%
    22:00 0°C° 0 mm 1 mps 634 mmHg 73%
    23:00 0°C° 0 mm 1 mps 634 mmHg 74%

    Tomorrow, 20 March, Wednesday

    Time Temperature Precipitation Wind Pressure Humidity
    00:00 -1°C° 0 mm 1 mps 634 mmHg 74%
    01:00 -1°C° 0 mm 1 mps 634 mmHg 74%
    02:00 -1°C° 0 mm 1 mps 634 mmHg 74%
    03:00 -1°C° 0 mm 1 mps 633 mmHg 75%
    04:00 -1°C° 0 mm 1 mps 633 mmHg 74%
    05:00 -1°C° 0 mm 1 mps 633 mmHg 73%
    06:00 -1°C° 0 mm 1 mps 633 mmHg 72%
    07:00 0°C° 0 mm 1 mps 633 mmHg 69%
    08:00 +2°C° 0 mm 1 mps 633 mmHg 65%
    09:00 +3°C° 0 mm 1 mps 634 mmHg 62%
    10:00 +4°C° 0 mm 1 mps 634 mmHg 62%
    11:00 +5°C° 0 mm 1 mps 633 mmHg 62%
    12:00 +6°C° 0 mm 1 mps 633 mmHg 62%
    13:00 +7°C° 0 mm 1 mps 633 mmHg 61%
    14:00 +7°C° 0 mm 1 mps 633 mmHg 61%
    15:00 +7°C° 0 mm 1 mps 633 mmHg 60%
    16:00 +7°C° 0 mm 1 mps 633 mmHg 62%
    17:00 +6°C° 0 mm 1 mps 633 mmHg 64%
    18:00 +5°C° 0 mm 1 mps 633 mmHg 65%
    19:00 +3°C° 0 mm 2 mps 633 mmHg 68%
    20:00 +2°C° 0 mm 2 mps 633 mmHg 71%
    21:00 +2°C° 0 mm 2 mps 633 mmHg 73%
    22:00 +1°C° 0 mm 2 mps 633 mmHg 74%
    23:00 +2°C° 0 mm 1 mps 634 mmHg 76%

    Day after tomorrow, 21 March, Thursday

    Time Temperature Precipitation Wind Pressure Humidity
    00:00 +2°C° 0 mm 1 mps 634 mmHg 77%
    01:00 +1°C° 0 mm 1 mps 634 mmHg 77%
    02:00 +1°C° 0 mm 1 mps 633 mmHg 77%
    03:00 +1°C° 0 mm 1 mps 633 mmHg 77%
    04:00 +1°C° 0 mm 1 mps 633 mmHg 77%
    05:00 0°C° 0 mm 1 mps 633 mmHg 77%
    06:00 0°C° 0 mm 1 mps 633 mmHg 76%
    07:00 +2°C° 0 mm 1 mps 634 mmHg 72%
    08:00 +3°C° 0 mm 1 mps 634 mmHg 68%
    09:00 +5°C° 0 mm 1 mps 635 mmHg 64%
    10:00 +5°C° 0 mm 1 mps 634 mmHg 61%
    11:00 +6°C° 0 mm 1 mps 634 mmHg 58%
    12:00 +7°C° 0 mm 1 mps 634 mmHg 56%
    13:00 +8°C° 0 mm 1 mps 634 mmHg 54%
    14:00 +8°C° 0 mm 1 mps 634 mmHg 53%
    15:00 +8°C° 0 mm 1 mps 634 mmHg 52%
    16:00 +7°C° 0 mm 1 mps 633 mmHg 54%
    17:00 +6°C° 0 mm 1 mps 633 mmHg 56%
    18:00 +5°C° 0 mm 1 mps 633 mmHg 58%
    19:00 +4°C° 0 mm 1 mps 633 mmHg 62%
    20:00 +3°C° 0 mm 1 mps 633 mmHg 65%
    21:00 +2°C° 0 mm 1 mps 634 mmHg 69%
    22:00 +2°C° 0 mm 1 mps 633 mmHg 71%
    23:00 +2°C° 0 mm 1 mps 633 mmHg 73%

    22 March, Friday

    Time Temperature Precipitation Wind Pressure Humidity
    00:00 +1°C° 0 mm 1 mps 633 mmHg 75%
    01:00 +1°C° 0 mm 1 mps 633 mmHg 77%
    02:00 0°C° 0 mm 1 mps 633 mmHg 78%
    03:00 0°C° 0 mm 1 mps 633 mmHg 79%
    04:00 0°C° 0 mm 1 mps 633 mmHg 79%
    05:00 0°C° 0 mm 1 mps 633 mmHg 79%
    06:00 -3°C° 0 mm 2 mps 633 mmHg 79%
    07:00 -1°C° 0 mm 2 mps 633 mmHg 72%
    08:00 +1°C° 0 mm 2 mps 633 mmHg 65%
    09:00 +2°C° 0 mm 2 mps 633 mmHg 58%
    10:00 +3°C° 0 mm 2 mps 633 mmHg 54%
    11:00 +2°C° 0 mm 3 mps 633 mmHg 50%
    12:00 +3°C° 0 mm 3 mps 633 mmHg 47%
    13:00 +3°C° 0 mm 3 mps 633 mmHg 48%
    14:00 +4°C° 0 mm 3 mps 632 mmHg 49%
    15:00 +4°C° 0 mm 3 mps 632 mmHg 50%
    16:00 +3°C° 0 mm 3 mps 632 mmHg 54%
    17:00 0°C° 0 mm 4 mps 632 mmHg 59%
    18:00 -1°C° 0 mm 4 mps 632 mmHg 63%
    19:00 -2°C° 0.1 mm 4 mps 632 mmHg 61%
    20:00 -2°C° 0.1 mm 3 mps 633 mmHg 58%
    21:00 -2°C° 0.1 mm 3 mps 633 mmHg 56%
    22:00 -4°C° 0 mm 3 mps 633 mmHg 56%
    23:00 -4°C° 0 mm 3 mps 633 mmHg 57%

    23 March, Saturday

    Time Temperature Precipitation Wind Pressure Humidity
    00:00 -5°C° 0 mm 3 mps 633 mmHg 58%
    01:00 -5°C° 0 mm 3 mps 633 mmHg 59%
    02:00 -6°C° 0 mm 3 mps 633 mmHg 60%
    03:00 -6°C° 0 mm 3 mps 633 mmHg 61%
    04:00 -6°C° 0 mm 3 mps 633 mmHg 60%
    05:00 -6°C° 0 mm 2 mps 633 mmHg 60%
    06:00 -7°C° 0 mm 2 mps 633 mmHg 60%
    07:00 -6°C° 0 mm 2 mps 633 mmHg 57%
    08:00 -6°C° 0 mm 3 mps 634 mmHg 54%
    09:00 -5°C° 0 mm 3 mps 634 mmHg 52%
    10:00 -4°C° 0 mm 3 mps 634 mmHg 50%
    11:00 -3°C° 0 mm 4 mps 634 mmHg 48%
    12:00 -3°C° 0 mm 4 mps 634 mmHg 46%
    13:00 -2°C° 0 mm 5 mps 634 mmHg 47%
    14:00 -2°C° 0 mm 5 mps 633 mmHg 47%
    15:00 -1°C° 0 mm 5 mps 633 mmHg 47%
    16:00 -2°C° 0 mm 4 mps 633 mmHg 51%
    17:00 -3°C° 0 mm 4 mps 633 mmHg 55%
    18:00 -4°C° 0 mm 3 mps 633 mmHg 58%
    19:00 -3°C° 0 mm 2 mps 633 mmHg 61%
    20:00 -4°C° 0 mm 2 mps 634 mmHg 63%
    21:00 -2°C° 0 mm 1 mps 634 mmHg 65%
    22:00 -3°C° 0 mm 1 mps 634 mmHg 65%
    23:00 -3°C° 0 mm 1 mps 633 mmHg 65%

    24 March, Sunday

    Time Temperature Precipitation Wind Pressure Humidity
    00:00 -3°C° 0 mm 1 mps 633 mmHg 65%
    01:00 -3°C° 0 mm 1 mps 633 mmHg 65%
    02:00 -3°C° 0 mm 1 mps 633 mmHg 65%
    03:00 -3°C° 0 mm 1 mps 633 mmHg 65%
    04:00 -3°C° 0 mm 1 mps 633 mmHg 66%
    05:00 -3°C° 0 mm 1 mps 632 mmHg 67%
    06:00 -2°C° 0 mm 1 mps 632 mmHg 69%
    07:00 -3°C° 0 mm 2 mps 632 mmHg 65%
    08:00 -2°C° 0 mm 2 mps 633 mmHg 62%
    09:00 -1°C° 0 mm 3 mps 633 mmHg 59%
    10:00 0°C° 0 mm 3 mps 633 mmHg 56%
    11:00 0°C° 0 mm 4 mps 632 mmHg 53%
    12:00 +1°C° 0 mm 4 mps 632 mmHg 51%
    13:00 +1°C° 0 mm 5 mps 632 mmHg 50%
    14:00 +2°C° 0 mm 7 mps 632 mmHg 50%
    15:00 +1°C° 0 mm 8 mps 631 mmHg 50%
    16:00 0°C° 0 mm 7 mps 632 mmHg 53%
    17:00 -2°C° 0 mm 6 mps 632 mmHg 55%
    18:00 -2°C° 0 mm 5 mps 632 mmHg 58%
    19:00 -2°C° 0 mm 4 mps 632 mmHg 60%
    20:00 -2°C° 0 mm 3 mps 632 mmHg 62%
    21:00 -3°C° 0 mm 2 mps 633 mmHg 64%
    22:00 -3°C° 0 mm 2 mps 633 mmHg 63%
    23:00 -4°C° 0 mm 2 mps 633 mmHg 61%
    Show more